contact:dominique.lefevre@mio.osupytheas.fr, maurice.libes@osupytheas.fr, didier.mallarino@osupytheas.fr
Project:EMSO http://www.emso-fr.org/EMSO-France
Depth: 2436.0 m
Title:EMSO Ligure Ouest : Data MII capteur AQUADOPP
Date,Latitude,Longitude,X_East,Y_North,Z_Up,Amplitude_X,Amplitude_Y,Amplitude_Z,Batterie,SoundSpeed,Heading,Pitch,Roll,Pressure,TIS,Speed,Direction
, degrees North, degrees East, m.s-1, m.s-1,m.s-1, 1, 1, 1, Volt, m.s-1, degree, degree, degree, dbar, degree_C, m.s-1, degree
2023-01-16T00:04:03,42.805,6.029,-0.002,-0.029,-0.042,102.0,101.0,102.0,13.3,1505.2,328.2,-0.8,1.8,2471.229,13.28,0.029,183.9
2023-01-16T00:07:03,42.805,6.029,-0.045,-0.002,-0.046,100.0,102.0,101.0,13.4,1505.2,337.8,-0.7,1.8,2471.228,13.29,0.045,267.5
2023-01-16T00:10:03,42.805,6.029,0.005,-0.017,-0.052,103.0,102.0,100.0,13.4,1505.2,319.0,-0.8,1.8,2471.204,13.29,0.017,163.6
2023-01-16T00:13:03,42.805,6.029,0.007,-0.019,-0.027,103.0,102.0,101.0,13.3,1505.2,325.0,-0.7,1.8,2471.242,13.29,0.02,159.8
2023-01-16T00:16:03,42.805,6.029,-0.044,-0.019,-0.029,103.0,102.0,101.0,13.4,1505.2,323.4,-0.8,1.8,2471.189,13.29,0.047,246.6
2023-01-16T00:19:03,42.805,6.029,-0.023,-0.009,-0.033,102.0,102.0,102.0,13.4,1505.2,332.0,-0.8,1.8,2471.171,13.29,0.024,248.6
2023-01-16T00:22:03,42.805,6.029,-0.038,-0.009,-0.022,100.0,103.0,102.0,13.4,1505.2,315.5,-0.8,1.8,2471.19,13.29,0.039,256.7
2023-01-16T00:25:03,42.805,6.029,-0.032,-0.014,-0.036,102.0,101.0,102.0,13.4,1505.2,334.2,-0.8,1.8,2471.176,13.29,0.034,246.4
2023-01-16T00:28:03,42.805,6.029,0.0,-0.003,-0.015,101.0,103.0,100.0,13.3,1505.2,320.0,-0.8,1.8,2471.205,13.29,0.003,180.0
2023-01-16T00:31:03,42.805,6.029,-0.008,-0.03,-0.009,103.0,101.0,102.0,13.4,1505.2,318.1,-0.8,1.8,2471.228,13.29,0.031,194.9
2023-01-16T00:34:03,42.805,6.029,-0.009,-0.018,-0.036,102.0,101.0,101.0,13.4,1505.2,319.3,-0.8,1.8,2471.209,13.29,0.02,206.6
2023-01-16T00:37:03,42.805,6.029,-0.022,-0.017,0.0,102.0,101.0,101.0,13.4,1505.2,329.6,-0.8,1.8,2471.178,13.29,0.027,232.3
2023-01-16T00:40:03,42.805,6.029,-0.019,-0.035,-0.034,103.0,103.0,102.0,13.3,1505.2,319.9,-0.8,1.8,2471.194,13.29,0.039,208.5
2023-01-16T00:43:03,42.805,6.029,-0.021,-0.01,-0.015,104.0,102.0,101.0,13.4,1505.2,332.3,-0.8,1.8,2471.189,13.29,0.023,244.5
2023-01-16T00:46:03,42.805,6.029,-0.011,-0.023,-0.028,103.0,102.0,102.0,13.4,1505.2,317.1,-0.8,1.8,2471.173,13.29,0.025,205.6
2023-01-16T00:49:03,42.805,6.029,-0.03,-0.015,-0.014,103.0,101.0,102.0,13.4,1505.2,329.3,-0.8,1.8,2471.174,13.29,0.033,243.4
2023-01-16T00:52:03,42.805,6.029,-0.007,-0.021,-0.004,103.0,101.0,102.0,13.4,1505.2,332.4,-0.8,1.8,2471.176,13.29,0.022,198.4
2023-01-16T00:55:03,42.805,6.029,-0.015,-0.014,-0.017,101.0,103.0,102.0,13.4,1505.2,323.4,-0.8,1.8,2471.217,13.29,0.02,227.0
2023-01-16T00:58:03,42.805,6.029,0.003,-0.019,0.003,102.0,101.0,101.0,13.3,1505.2,321.0,-0.8,1.8,2471.158,13.29,0.019,171.0
2023-01-16T01:04:03,42.805,6.029,0.002,-0.019,-0.015,104.0,103.0,103.0,13.4,1505.2,334.2,-0.7,1.8,2471.233,13.28,0.019,174.0
2023-01-16T01:07:03,42.805,6.029,-0.006,-0.042,-0.071,103.0,103.0,103.0,13.4,1505.2,329.4,-0.8,1.8,2471.215,13.29,0.042,188.1
2023-01-16T01:10:04,42.805,6.029,-0.005,-0.018,-0.035,102.0,101.0,101.0,13.3,1505.2,321.5,-0.7,1.9,2471.232,13.29,0.018,195.5
2023-01-16T01:13:03,42.805,6.029,-0.024,-0.031,-0.023,102.0,101.0,102.0,13.3,1505.2,326.3,-0.8,1.8,2471.19,13.29,0.039,217.7
2023-01-16T01:16:03,42.805,6.029,-0.02,-0.03,-0.024,102.0,102.0,102.0,13.3,1505.2,322.0,-0.7,1.8,2471.178,13.29,0.036,213.7
2023-01-16T01:19:03,42.805,6.029,-0.042,-0.002,-0.011,103.0,100.0,102.0,13.4,1505.2,320.8,-0.8,1.8,2471.183,13.29,0.042,267.3
2023-01-16T01:22:03,42.805,6.029,-0.028,-0.015,-0.039,102.0,102.0,102.0,13.3,1505.2,337.8,-0.8,1.8,2471.192,13.29,0.031,241.8
2023-01-16T01:25:03,42.805,6.029,-0.028,0.006,-0.024,102.0,102.0,102.0,13.3,1505.2,324.8,-0.8,1.8,2471.19,13.29,0.028,282.1
2023-01-16T01:28:03,42.805,6.029,-0.034,-0.04,-0.036,102.0,102.0,102.0,13.4,1505.2,328.0,-0.7,1.8,2471.198,13.29,0.052,220.4
2023-01-16T01:31:03,42.805,6.029,-0.013,-0.009,-0.036,102.0,103.0,101.0,13.4,1505.2,335.0,-0.8,1.8,2471.176,13.29,0.015,235.3
2023-01-16T01:34:03,42.805,6.029,-0.008,-0.006,-0.014,102.0,102.0,101.0,13.4,1505.2,330.6,-0.8,1.8,2471.182,13.29,0.01,233.1
2023-01-16T01:37:03,42.805,6.029,-0.037,-0.012,-0.022,102.0,102.0,101.0,13.4,1505.2,330.9,-0.8,1.8,2471.185,13.29,0.038,252.0
2023-01-16T01:40:03,42.805,6.029,-0.026,-0.03,-0.061,102.0,102.0,101.0,13.4,1505.2,316.1,-0.8,1.8,2471.18,13.29,0.039,220.9
2023-01-16T01:43:03,42.805,6.029,-0.038,0.002,-0.029,102.0,103.0,102.0,13.3,1505.2,334.2,-0.7,1.8,2471.168,13.29,0.038,273.0
2023-01-16T01:46:03,42.805,6.029,-0.046,-0.006,-0.038,101.0,103.0,102.0,13.4,1505.2,329.8,-0.8,1.8,2471.175,13.29,0.046,262.6
2023-01-16T01:49:03,42.805,6.029,-0.012,-0.022,-0.045,102.0,102.0,102.0,13.4,1505.2,329.6,-0.8,1.8,2471.205,13.29,0.025,208.6
2023-01-16T01:52:03,42.805,6.029,-0.03,-0.035,-0.057,103.0,102.0,102.0,13.4,1505.2,319.4,-0.7,1.8,2471.204,13.29,0.046,220.6
2023-01-16T01:55:03,42.805,6.029,-0.019,0.004,-0.004,102.0,102.0,102.0,13.4,1505.2,326.5,-0.8,1.8,2471.203,13.29,0.019,281.9
2023-01-16T01:58:03,42.805,6.029,-0.028,-0.029,-0.056,102.0,103.0,102.0,13.3,1505.2,320.9,-0.8,1.8,2471.142,13.29,0.04,224.0
2023-01-16T02:04:03,42.805,6.029,-0.012,-0.023,-0.041,102.0,102.0,101.0,13.4,1505.2,325.8,-0.8,1.8,2471.25,13.28,0.025,207.6
2023-01-16T02:07:03,42.805,6.029,-0.01,0.004,-0.028,102.0,103.0,102.0,13.4,1505.2,333.8,-0.8,1.8,2471.202,13.28,0.01,291.8
2023-01-16T02:10:03,42.805,6.029,-0.032,0.0,-0.018,103.0,101.0,102.0,13.4,1505.2,337.0,-0.8,1.8,2471.243,13.29,0.032,270.0
2023-01-16T02:13:03,42.805,6.029,-0.045,-0.011,-0.047,102.0,103.0,101.0,13.4,1505.2,329.8,-0.8,1.8,2471.249,13.29,0.046,256.3
2023-01-16T02:16:03,42.805,6.029,-0.036,-0.018,-0.052,102.0,102.0,102.0,13.3,1505.2,333.4,-0.8,1.8,2471.231,13.29,0.04,243.4
2023-01-16T02:19:03,42.805,6.029,-0.034,-0.021,-0.028,102.0,102.0,102.0,13.3,1505.2,329.8,-0.8,1.8,2471.197,13.29,0.039,238.3
2023-01-16T02:22:03,42.805,6.029,-0.037,-0.014,-0.026,100.0,102.0,102.0,13.3,1505.2,334.5,-0.7,1.8,2471.204,13.29,0.039,249.3
2023-01-16T02:25:03,42.805,6.029,-0.009,-0.029,-0.011,104.0,102.0,100.0,13.4,1505.2,323.7,-0.8,1.8,2471.185,13.29,0.03,197.2
2023-01-16T02:28:03,42.805,6.029,-0.02,-0.007,-0.044,102.0,102.0,102.0,13.4,1505.2,334.5,-0.8,1.8,2471.177,13.29,0.021,250.7
2023-01-16T02:31:03,42.805,6.029,-0.017,-0.026,-0.049,102.0,103.0,102.0,13.3,1505.2,319.4,-0.8,1.8,2471.216,13.29,0.031,213.2
2023-01-16T02:34:03,42.805,6.029,-0.029,0.002,-0.03,103.0,102.0,102.0,13.4,1505.2,334.9,-0.7,1.8,2471.202,13.29,0.029,273.9
2023-01-16T02:37:03,42.805,6.029,-0.026,-0.03,-0.037,103.0,102.0,101.0,13.4,1505.2,320.4,-0.7,1.8,2471.185,13.29,0.039,220.9
2023-01-16T02:40:03,42.805,6.029,-0.018,-0.026,-0.047,102.0,102.0,102.0,13.4,1505.2,318.6,-0.8,1.8,2471.156,13.29,0.031,214.7
2023-01-16T02:43:03,42.805,6.029,-0.022,-0.023,-0.035,103.0,103.0,101.0,13.3,1505.2,322.6,-0.7,1.8,2471.203,13.29,0.031,223.7
2023-01-16T02:46:03,42.805,6.029,-0.027,-0.007,-0.019,101.0,102.0,103.0,13.4,1505.2,320.6,-0.8,1.9,2471.203,13.29,0.027,255.5
2023-01-16T02:49:03,42.805,6.029,-0.017,-0.019,-0.021,104.0,101.0,102.0,13.4,1505.2,325.8,-0.7,1.8,2471.178,13.29,0.025,221.8
2023-01-16T02:52:03,42.805,6.029,-0.006,0.0,-0.024,103.0,102.0,101.0,13.4,1505.2,323.3,-0.8,1.8,2471.145,13.29,0.006,270.0
2023-01-16T02:55:03,42.805,6.029,-0.011,-0.008,-0.001,104.0,102.0,101.0,13.3,1505.2,329.8,-0.7,1.8,2471.193,13.29,0.013,234.0
2023-01-16T02:58:03,42.805,6.029,-0.003,-0.025,-0.03,103.0,102.0,103.0,13.4,1505.2,319.5,-0.8,1.8,2471.202,13.29,0.025,186.8
2023-01-16T03:04:03,42.805,6.029,-0.021,-0.021,-0.063,103.0,101.0,101.0,13.4,1505.2,331.1,-0.8,1.8,2471.219,13.28,0.029,225.0
2023-01-16T03:07:03,42.805,6.029,-0.034,-0.002,-0.014,104.0,100.0,102.0,13.3,1505.2,329.6,-0.8,1.8,2471.214,13.28,0.034,266.6
2023-01-16T03:10:03,42.805,6.029,-0.026,-0.026,-0.019,103.0,102.0,103.0,13.4,1505.2,327.7,-0.8,1.8,2471.208,13.28,0.036,225.0
2023-01-16T03:13:03,42.805,6.029,-0.023,-0.022,-0.003,102.0,102.0,102.0,13.4,1505.2,318.1,-0.8,1.8,2471.239,13.29,0.031,226.3
2023-01-16T03:16:03,42.805,6.029,-0.035,0.002,-0.013,103.0,101.0,101.0,13.4,1505.2,333.0,-0.8,1.8,2471.161,13.29,0.035,273.3
2023-01-16T03:19:03,42.805,6.029,-0.045,0.0,-0.012,102.0,103.0,101.0,13.3,1505.2,320.1,-0.8,1.9,2471.248,13.29,0.045,270.0
2023-01-16T03:22:03,42.805,6.029,-0.04,0.001,-0.024,103.0,101.0,101.0,13.4,1505.2,323.2,-0.7,1.8,2471.202,13.29,0.04,271.4
2023-01-16T03:25:03,42.805,6.029,-0.038,-0.009,-0.032,102.0,101.0,101.0,13.3,1505.2,337.1,-0.8,1.8,2471.163,13.29,0.039,256.7
2023-01-16T03:28:03,42.805,6.029,-0.012,-0.035,-0.055,103.0,102.0,101.0,13.3,1505.2,318.0,-0.8,1.8,2471.183,13.29,0.037,198.9
2023-01-16T03:31:03,42.805,6.029,-0.028,-0.018,-0.018,103.0,102.0,101.0,13.4,1505.2,319.3,-0.7,1.8,2471.183,13.29,0.033,237.3
2023-01-16T03:34:03,42.805,6.029,-0.041,-0.02,-0.034,103.0,101.0,101.0,13.3,1505.2,333.4,-0.8,1.8,2471.222,13.29,0.045,244.0
2023-01-16T03:37:03,42.805,6.029,-0.018,-0.014,-0.041,102.0,102.0,101.0,13.4,1505.2,327.8,-0.8,1.8,2471.234,13.29,0.022,232.1
2023-01-16T03:40:03,42.805,6.029,-0.009,-0.025,-0.028,103.0,100.0,101.0,13.3,1505.2,335.4,-0.8,1.8,2471.15,13.29,0.026,199.8
2023-01-16T03:43:03,42.805,6.029,-0.018,-0.014,-0.024,102.0,103.0,101.0,13.4,1505.2,326.5,-0.8,1.8,2471.19,13.29,0.022,232.1
2023-01-16T03:46:03,42.805,6.029,-0.027,0.013,0.002,102.0,102.0,102.0,13.3,1505.2,336.6,-0.7,1.8,2471.186,13.29,0.029,295.7
2023-01-16T03:49:03,42.805,6.029,-0.019,-0.002,-0.016,101.0,102.0,101.0,13.4,1505.2,328.8,-0.8,1.8,2471.182,13.29,0.019,264.0
2023-01-16T03:52:03,42.805,6.029,-0.015,-0.022,-0.039,102.0,102.0,102.0,13.4,1505.2,335.7,-0.8,1.8,2471.174,13.29,0.026,214.3
2023-01-16T03:55:03,42.805,6.029,-0.03,-0.022,-0.021,101.0,101.0,102.0,13.3,1505.2,316.0,-0.7,1.8,2471.164,13.29,0.037,233.7
2023-01-16T03:58:03,42.805,6.029,-0.047,-0.017,-0.018,103.0,100.0,100.0,13.4,1505.2,323.8,-0.8,1.8,2471.162,13.29,0.049,250.1
2023-01-16T04:04:03,42.805,6.029,-0.023,-0.014,-0.055,103.0,102.0,101.0,13.3,1505.2,323.4,-0.8,1.8,2471.225,13.28,0.026,238.7
2023-01-16T04:07:03,42.805,6.029,-0.029,-0.01,-0.026,102.0,101.0,102.0,13.4,1505.2,318.7,-0.7,1.8,2471.224,13.28,0.03,251.0
2023-01-16T04:10:03,42.805,6.029,-0.031,-0.009,-0.012,101.0,101.0,101.0,13.3,1505.2,330.1,-0.8,1.8,2471.176,13.28,0.032,253.8
2023-01-16T04:13:03,42.805,6.029,-0.048,-0.013,-0.006,102.0,101.0,101.0,13.3,1505.2,321.0,-0.7,1.8,2471.193,13.29,0.049,254.8
2023-01-16T04:16:03,42.805,6.029,-0.029,-0.011,-0.017,100.0,102.0,102.0,13.3,1505.2,321.7,-0.8,1.8,2471.162,13.29,0.031,249.2
2023-01-16T04:19:03,42.805,6.029,-0.021,-0.02,-0.013,101.0,102.0,102.0,13.4,1505.2,323.5,-0.8,1.8,2471.19,13.29,0.028,226.4
2023-01-16T04:22:03,42.805,6.029,-0.039,0.002,-0.031,102.0,101.0,101.0,13.4,1505.2,335.2,-0.8,1.8,2471.173,13.29,0.039,272.9
2023-01-16T04:25:03,42.805,6.029,-0.028,-0.016,-0.02,102.0,102.0,102.0,13.4,1505.2,317.0,-0.8,1.8,2471.149,13.29,0.032,240.3
2023-01-16T04:28:03,42.805,6.029,-0.029,-0.016,-0.043,102.0,102.0,100.0,13.4,1505.2,321.3,-0.7,1.8,2471.188,13.29,0.033,241.1
2023-01-16T04:31:03,42.805,6.029,-0.025,-0.02,-0.052,102.0,101.0,102.0,13.4,1505.2,329.6,-0.8,1.8,2471.154,13.29,0.032,231.3
2023-01-16T04:34:03,42.805,6.029,-0.034,0.011,-0.003,102.0,101.0,101.0,13.4,1505.2,319.9,-0.8,1.8,2471.182,13.29,0.035,287.9
2023-01-16T04:37:03,42.805,6.029,-0.008,-0.004,-0.032,102.0,103.0,102.0,13.4,1505.2,317.7,-0.8,1.8,2471.201,13.29,0.008,243.4
2023-01-16T04:40:03,42.805,6.029,-0.019,-0.024,-0.064,102.0,102.0,101.0,13.4,1505.2,330.5,-0.7,1.8,2471.154,13.29,0.03,218.4
2023-01-16T04:43:03,42.805,6.029,-0.033,0.013,-0.01,102.0,102.0,102.0,13.3,1505.2,338.5,-0.8,1.8,2471.138,13.29,0.035,291.5
2023-01-16T04:46:03,42.805,6.029,-0.049,-0.013,-0.043,102.0,102.0,101.0,13.4,1505.2,331.0,-0.7,1.8,2471.163,13.29,0.05,255.1
2023-01-16T04:49:03,42.805,6.029,-0.033,0.0,-0.028,101.0,101.0,102.0,13.4,1505.2,332.3,-0.8,1.8,2471.156,13.29,0.033,270.0
2023-01-16T04:52:03,42.805,6.029,-0.01,-0.03,-0.039,102.0,102.0,101.0,13.4,1505.2,320.4,-0.8,1.8,2471.164,13.29,0.031,198.4
2023-01-16T04:55:03,42.805,6.029,-0.033,-0.001,-0.04,102.0,102.0,102.0,13.4,1505.2,337.0,-0.8,1.8,2471.149,13.29,0.033,268.3
2023-01-16T04:58:03,42.805,6.029,-0.027,-0.008,-0.003,103.0,102.0,101.0,13.3,1505.2,320.9,-0.8,1.8,2471.167,13.29,0.028,253.5
2023-01-16T05:04:03,42.805,6.029,-0.043,-0.011,-0.03,103.0,102.0,102.0,13.3,1505.2,338.5,-0.8,1.8,2471.174,13.28,0.044,255.7
2023-01-16T05:07:03,42.805,6.029,-0.039,0.0,-0.005,102.0,101.0,102.0,13.4,1505.2,319.4,-0.8,1.8,2471.187,13.28,0.039,270.0
2023-01-16T05:10:03,42.805,6.029,-0.019,-0.022,-0.015,103.0,101.0,101.0,13.4,1505.2,327.3,-0.8,1.8,2471.168,13.28,0.029,220.8
2023-01-16T05:13:03,42.805,6.029,-0.026,-0.003,-0.027,103.0,102.0,101.0,13.4,1505.2,331.8,-0.8,1.8,2471.176,13.29,0.026,263.4
2023-01-16T05:16:03,42.805,6.029,-0.031,-0.01,-0.036,102.0,102.0,102.0,13.4,1505.2,327.8,-0.7,1.8,2471.166,13.29,0.032,252.1
2023-01-16T05:19:03,42.805,6.029,-0.022,-0.017,-0.018,102.0,102.0,101.0,13.4,1505.2,329.4,-0.8,1.8,2471.172,13.29,0.027,232.3
2023-01-16T05:22:03,42.805,6.029,-0.042,-0.014,-0.032,103.0,103.0,101.0,13.3,1505.2,330.6,-0.8,1.8,2471.164,13.29,0.044,251.6
2023-01-16T05:25:03,42.805,6.029,-0.023,-0.032,-0.049,102.0,100.0,101.0,13.4,1505.2,320.0,-0.8,1.8,2471.163,13.29,0.039,215.7
2023-01-16T05:28:03,42.805,6.029,-0.011,-0.015,-0.033,103.0,101.0,102.0,13.3,1505.2,328.2,-0.8,1.8,2471.129,13.29,0.018,216.3
2023-01-16T05:31:03,42.805,6.029,-0.041,-0.01,-0.023,102.0,102.0,102.0,13.3,1505.2,330.5,-0.8,1.8,2471.118,13.29,0.042,256.3
2023-01-16T05:34:03,42.805,6.029,-0.041,-0.032,-0.049,102.0,102.0,102.0,13.4,1505.2,319.7,-0.8,1.8,2471.137,13.29,0.052,232.0
2023-01-16T05:37:03,42.805,6.029,-0.033,-0.026,-0.03,101.0,102.0,101.0,13.3,1505.2,331.3,-0.8,1.8,2471.151,13.29,0.042,231.8
2023-01-16T05:40:03,42.805,6.029,-0.03,-0.021,-0.002,101.0,102.0,102.0,13.4,1505.2,329.4,-0.7,1.8,2471.146,13.29,0.036,235.0
2023-01-16T05:43:03,42.805,6.029,-0.013,-0.024,-0.055,102.0,101.0,102.0,13.3,1505.2,332.6,-0.8,1.8,2471.139,13.29,0.027,208.4
2023-01-16T05:46:03,42.805,6.029,-0.028,-0.008,-0.032,102.0,101.0,102.0,13.4,1505.2,329.0,-0.8,1.8,2471.119,13.29,0.029,254.1
2023-01-16T05:49:03,42.805,6.029,-0.021,-0.014,-0.031,102.0,101.0,100.0,13.4,1505.2,333.0,-0.8,1.8,2471.15,13.29,0.025,236.3
2023-01-16T05:52:03,42.805,6.029,-0.009,-0.02,-0.007,102.0,101.0,102.0,13.4,1505.2,321.1,-0.7,1.8,2471.128,13.29,0.021,204.2
2023-01-16T05:55:03,42.805,6.029,-0.024,-0.007,-0.022,102.0,102.0,102.0,13.4,1505.2,318.0,-0.7,1.9,2471.13,13.29,0.025,253.7
2023-01-16T05:58:03,42.805,6.029,-0.037,-0.007,-0.01,102.0,102.0,102.0,13.4,1505.2,328.0,-0.7,1.8,2471.103,13.29,0.037,259.3
2023-01-16T06:04:02,42.805,6.029,-0.02,-0.034,-0.035,102.0,102.0,101.0,13.4,1505.2,318.6,-0.8,1.9,2471.215,13.28,0.039,210.5
2023-01-16T06:07:02,42.805,6.029,-0.024,-0.005,-0.02,102.0,102.0,101.0,13.4,1505.2,324.4,-0.8,1.8,2471.199,13.28,0.024,258.2
2023-01-16T06:10:02,42.805,6.029,-0.041,0.011,-0.054,102.0,101.0,101.0,13.4,1505.2,338.7,-0.7,1.8,2471.192,13.28,0.042,285.0
2023-01-16T06:13:02,42.805,6.029,-0.039,0.001,-0.033,102.0,102.0,101.0,13.3,1505.2,331.1,-0.8,1.8,2471.142,13.29,0.039,271.5
2023-01-16T06:16:03,42.805,6.029,-0.018,-0.01,-0.012,102.0,102.0,102.0,13.4,1505.2,321.9,-0.8,1.8,2471.164,13.29,0.02,240.9
2023-01-16T06:19:03,42.805,6.029,-0.032,-0.027,-0.054,102.0,102.0,101.0,13.3,1505.2,332.6,-0.8,1.8,2471.159,13.29,0.041,229.8
2023-01-16T06:22:02,42.805,6.029,-0.032,-0.026,-0.026,101.0,102.0,102.0,13.3,1505.2,318.5,-0.7,1.8,2471.144,13.29,0.041,230.9
2023-01-16T06:25:03,42.805,6.029,-0.033,-0.016,-0.066,102.0,102.0,102.0,13.4,1505.2,331.0,-0.8,1.8,2471.156,13.29,0.036,244.1
2023-01-16T06:28:03,42.805,6.029,-0.025,-0.003,-0.027,102.0,102.0,101.0,13.4,1505.2,333.8,-0.8,1.8,2471.153,13.29,0.025,263.2
2023-01-16T06:31:03,42.805,6.029,-0.016,-0.016,-0.019,101.0,102.0,101.0,13.4,1505.2,320.6,-0.7,1.8,2471.113,13.29,0.022,225.0
2023-01-16T06:34:03,42.805,6.029,-0.035,-0.003,0.0,102.0,102.0,102.0,13.3,1505.2,321.4,-0.8,1.8,2471.167,13.29,0.035,265.1
2023-01-16T06:37:02,42.805,6.029,-0.041,-0.008,-0.037,102.0,102.0,101.0,13.3,1505.2,326.7,-0.7,1.8,2471.095,13.29,0.041,259.0
2023-01-16T06:40:03,42.805,6.029,-0.017,-0.004,-0.033,103.0,102.0,102.0,13.4,1505.2,323.2,-0.8,1.9,2471.101,13.29,0.017,256.8
2023-01-16T06:43:03,42.805,6.029,-0.03,0.006,-0.025,103.0,100.0,102.0,13.4,1505.2,333.0,-0.7,1.8,2471.096,13.29,0.03,281.3
2023-01-16T06:46:03,42.805,6.029,-0.015,-0.021,-0.022,102.0,102.0,101.0,13.4,1505.2,321.2,-0.7,1.8,2471.084,13.29,0.025,215.5
2023-01-16T06:49:03,42.805,6.029,-0.024,-0.019,-0.022,102.0,102.0,101.0,13.4,1505.2,328.0,-0.8,1.8,2471.124,13.29,0.03,231.6
2023-01-16T06:52:03,42.805,6.029,-0.049,0.0,-0.04,102.0,102.0,101.0,13.4,1505.2,325.7,-0.8,1.8,2471.118,13.29,0.049,270.0
2023-01-16T06:55:03,42.805,6.029,-0.026,-0.015,-0.043,102.0,101.0,102.0,13.4,1505.2,324.1,-0.8,1.8,2471.09,13.29,0.03,240.0
2023-01-16T06:58:03,42.805,6.029,-0.01,-0.012,-0.011,102.0,102.0,102.0,13.4,1505.2,325.1,-0.8,1.8,2471.103,13.29,0.015,219.8
2023-01-16T07:04:03,42.805,6.029,-0.025,-0.013,-0.022,102.0,102.0,101.0,13.4,1505.2,325.1,-0.8,1.8,2471.14,13.28,0.028,242.5
2023-01-16T07:07:03,42.805,6.029,-0.031,-0.008,-0.027,102.0,102.0,101.0,13.4,1505.2,320.0,-0.8,1.8,2471.18,13.28,0.032,255.5
2023-01-16T07:10:03,42.805,6.029,0.012,-0.018,-0.004,103.0,103.0,102.0,13.4,1505.2,326.0,-0.8,1.8,2471.177,13.29,0.021,146.3
2023-01-16T07:13:03,42.805,6.029,-0.008,-0.016,-0.017,102.0,102.0,101.0,13.4,1505.2,323.4,-0.8,1.8,2471.153,13.29,0.017,206.6
2023-01-16T07:16:03,42.805,6.029,-0.031,-0.017,-0.008,104.0,101.0,101.0,13.4,1505.2,334.1,-0.8,1.8,2471.137,13.29,0.035,241.3
2023-01-16T07:19:03,42.805,6.029,-0.031,-0.014,-0.006,101.0,101.0,102.0,13.4,1505.2,320.0,-0.8,1.8,2471.156,13.29,0.034,245.7
2023-01-16T07:22:03,42.805,6.029,-0.033,-0.028,-0.04,102.0,103.0,102.0,13.3,1505.2,321.6,-0.8,1.8,2471.138,13.29,0.043,229.7
2023-01-16T07:25:03,42.805,6.029,-0.037,0.0,-0.013,103.0,103.0,102.0,13.4,1505.2,320.7,-0.7,1.8,2471.111,13.29,0.037,270.0
2023-01-16T07:28:03,42.805,6.029,-0.035,0.009,-0.034,102.0,102.0,101.0,13.4,1505.2,334.9,-0.7,1.8,2471.134,13.29,0.036,284.4
2023-01-16T07:31:03,42.805,6.029,-0.017,-0.028,-0.029,103.0,102.0,102.0,13.3,1505.2,320.4,-0.8,1.9,2471.101,13.29,0.032,211.3
2023-01-16T07:34:03,42.805,6.029,-0.04,0.0,0.005,103.0,102.0,101.0,13.4,1505.2,323.9,-0.7,1.8,2471.09,13.29,0.04,270.0
2023-01-16T07:37:03,42.805,6.029,-0.024,-0.036,-0.061,103.0,102.0,102.0,13.4,1505.2,318.1,-0.8,1.8,2471.096,13.29,0.043,213.7
2023-01-16T07:40:03,42.805,6.029,-0.053,-0.013,-0.044,103.0,103.0,102.0,13.4,1505.2,336.5,-0.8,1.8,2471.16,13.29,0.054,256.2
2023-01-16T07:43:03,42.805,6.029,-0.035,0.007,-0.014,103.0,102.0,101.0,13.3,1505.2,329.8,-0.7,1.8,2471.125,13.29,0.035,281.3
2023-01-16T07:46:03,42.805,6.029,-0.057,-0.006,-0.052,101.0,102.0,102.0,13.4,1505.2,336.6,-0.8,1.8,2471.133,13.29,0.057,264.0
2023-01-16T07:49:03,42.805,6.029,-0.037,-0.013,-0.022,103.0,102.0,102.0,13.4,1505.2,331.7,-0.8,1.8,2471.112,13.29,0.039,250.6
2023-01-16T07:52:03,42.805,6.029,-0.005,-0.019,-0.042,102.0,103.0,102.0,13.3,1505.2,329.3,-0.7,1.8,2471.092,13.29,0.019,194.7
2023-01-16T07:55:03,42.805,6.029,-0.037,-0.019,-0.013,103.0,102.0,102.0,13.3,1505.2,337.0,-0.8,1.8,2471.103,13.29,0.041,242.8
2023-01-16T07:58:03,42.805,6.029,-0.02,-0.004,-0.011,103.0,102.0,102.0,13.3,1505.2,322.2,-0.8,1.8,2471.108,13.29,0.02,258.7
2023-01-16T08:04:03,42.805,6.029,-0.035,-0.018,0.0,102.0,104.0,101.0,13.4,1505.2,326.9,-0.7,1.9,2471.181,13.28,0.039,242.8
2023-01-16T08:07:03,42.805,6.029,0.003,-0.012,0.002,101.0,102.0,102.0,13.4,1505.2,329.5,-0.8,1.9,2471.187,13.28,0.012,166.0
2023-01-16T08:10:03,42.805,6.029,-0.034,-0.009,-0.026,103.0,102.0,102.0,13.3,1505.2,326.0,-0.8,1.8,2471.125,13.29,0.035,255.2
2023-01-16T08:13:03,42.805,6.029,-0.048,0.015,0.013,102.0,102.0,101.0,13.3,1505.2,329.9,-0.8,1.8,2471.115,13.29,0.05,287.4
2023-01-16T08:16:03,42.805,6.029,-0.023,0.0,-0.01,102.0,103.0,101.0,13.4,1505.2,322.0,-0.7,1.8,2471.13,13.29,0.023,270.0
2023-01-16T08:19:03,42.805,6.029,-0.021,-0.001,-0.032,103.0,102.0,102.0,13.4,1505.2,323.4,-0.7,1.8,2471.142,13.29,0.021,267.3
2023-01-16T08:22:03,42.805,6.029,-0.028,-0.021,-0.031,104.0,104.0,100.0,13.4,1505.2,333.0,-0.8,1.9,2471.151,13.29,0.035,233.1
2023-01-16T08:25:03,42.805,6.029,-0.038,0.003,-0.01,103.0,101.0,102.0,13.3,1505.2,329.6,-0.7,1.8,2471.076,13.29,0.038,274.5
2023-01-16T08:28:03,42.805,6.029,-0.011,0.006,-0.011,102.0,103.0,102.0,13.4,1505.2,325.0,-0.8,1.8,2471.106,13.29,0.012,298.6
2023-01-16T08:31:03,42.805,6.029,-0.017,-0.017,-0.025,103.0,101.0,101.0,13.3,1505.2,324.2,-0.8,1.9,2471.109,13.29,0.024,225.0
2023-01-16T08:34:03,42.805,6.029,-0.031,-0.003,-0.008,104.0,104.0,100.0,13.4,1505.2,333.0,-0.8,1.8,2471.105,13.29,0.031,264.5
2023-01-16T08:37:03,42.805,6.029,-0.03,-0.002,-0.04,103.0,102.0,101.0,13.4,1505.2,331.8,-0.7,1.8,2471.126,13.29,0.03,266.2
2023-01-16T08:40:03,42.805,6.029,-0.021,0.015,-0.001,103.0,103.0,102.0,13.3,1505.2,338.2,-0.7,1.8,2471.132,13.29,0.025,305.5
2023-01-16T08:43:03,42.805,6.029,-0.021,-0.011,-0.011,102.0,103.0,102.0,13.4,1505.2,329.3,-0.7,1.8,2471.098,13.29,0.023,242.4
2023-01-16T08:46:03,42.805,6.029,-0.028,-0.001,-0.026,103.0,101.0,102.0,13.3,1505.2,332.3,-0.8,1.8,2471.115,13.29,0.028,268.0
2023-01-16T08:49:03,42.805,6.029,-0.023,-0.007,-0.036,103.0,102.0,102.0,13.4,1505.2,326.3,-0.7,1.8,2471.141,13.29,0.024,253.1
2023-01-16T08:52:03,42.805,6.029,-0.044,-0.022,-0.037,102.0,103.0,102.0,13.4,1505.2,324.1,-0.7,1.8,2471.1,13.29,0.049,243.4
2023-01-16T08:55:03,42.805,6.029,-0.027,-0.012,-0.033,102.0,103.0,101.0,13.4,1505.2,327.5,-0.8,1.8,2471.158,13.29,0.029,246.0
2023-01-16T08:58:03,42.805,6.029,-0.037,-0.022,-0.036,103.0,102.0,103.0,13.4,1505.2,330.5,-0.8,1.8,2471.083,13.29,0.043,239.3
2023-01-16T09:04:03,42.805,6.029,-0.04,-0.012,-0.04,102.0,102.0,102.0,13.4,1505.2,333.4,-0.7,1.9,2471.187,13.28,0.041,253.3
2023-01-16T09:07:03,42.805,6.029,-0.037,0.01,0.004,103.0,102.0,101.0,13.4,1505.2,334.5,-0.8,1.8,2471.145,13.28,0.038,285.1
2023-01-16T09:10:03,42.805,6.029,-0.013,-0.007,-0.007,102.0,102.0,103.0,13.4,1505.2,330.0,-0.8,1.8,2471.12,13.29,0.014,241.7
2023-01-16T09:13:03,42.805,6.029,-0.042,0.0,0.0,102.0,102.0,103.0,13.4,1505.2,331.0,-0.8,1.8,2471.129,13.29,0.042,270.0
2023-01-16T09:16:03,42.805,6.029,-0.03,-0.01,-0.052,103.0,101.0,102.0,13.4,1505.2,322.6,-0.8,1.8,2471.145,13.29,0.031,251.6
2023-01-16T09:19:03,42.805,6.029,-0.03,0.019,-0.028,103.0,102.0,101.0,13.3,1505.2,331.1,-0.8,1.8,2471.101,13.29,0.035,302.3
2023-01-16T09:22:03,42.805,6.029,-0.054,-0.016,-0.055,102.0,103.0,102.0,13.4,1505.2,328.4,-0.7,1.9,2471.132,13.29,0.056,253.5
2023-01-16T09:25:03,42.805,6.029,-0.043,-0.018,-0.044,103.0,102.0,102.0,13.4,1505.2,322.6,-0.8,1.8,2471.14,13.29,0.046,247.3
2023-01-16T09:28:03,42.805,6.029,-0.024,0.004,-0.01,103.0,103.0,102.0,13.4,1505.2,337.0,-0.8,1.8,2471.112,13.29,0.024,279.5
2023-01-16T09:31:03,42.805,6.029,-0.039,0.002,-0.046,103.0,102.0,102.0,13.4,1505.2,318.4,-0.7,1.8,2471.09,13.29,0.039,272.9
2023-01-16T09:34:03,42.805,6.029,-0.013,-0.002,0.01,103.0,101.0,103.0,13.4,1505.2,321.0,-0.8,1.8,2471.151,13.29,0.013,261.3
2023-01-16T09:37:03,42.805,6.029,-0.015,-0.009,-0.026,104.0,102.0,103.0,13.4,1505.2,326.5,-0.7,1.8,2471.143,13.29,0.017,239.0
2023-01-16T09:40:03,42.805,6.029,-0.023,-0.003,-0.023,103.0,104.0,102.0,13.4,1505.2,332.0,-0.8,1.8,2471.127,13.29,0.023,262.6
2023-01-16T09:43:03,42.805,6.029,-0.022,-0.004,-0.025,103.0,104.0,103.0,13.4,1505.2,328.2,-0.8,1.9,2471.157,13.29,0.022,259.7
2023-01-16T09:46:03,42.805,6.029,-0.048,0.022,-0.016,104.0,103.0,103.0,13.4,1505.2,338.8,-0.7,1.8,2471.106,13.29,0.052,294.6
2023-01-16T09:49:03,42.805,6.029,-0.035,-0.01,-0.024,103.0,103.0,103.0,13.4,1505.2,316.6,-0.8,1.8,2471.15,13.29,0.036,254.1